This is the latest recevied weather packets stored in our database for station/object NC4J. If no packets are shown the sender has not sent any weather packets the latest 1 day(s).
| Time | Temp. | Humidity | Pressure | Rain* | Wind** | Luminosity | Snow |
|---|---|---|---|---|---|---|---|
| 1778049943 | 18.33° C | 50% | 1014.2 hPa | 0 mm | - | 0 W/m² | - |
| 1778049643 | 18.89° C | 49% | 1014 hPa | 0 mm | - | 0 W/m² | - |
| 1778049342 | 18.33° C | 49% | 1014.5 hPa | 0 mm | - | 0 W/m² | - |
| 1778048737 | 17.22° C | 54% | 1014.5 hPa | 0 mm | - | 0 W/m² | - |
| 1778048129 | 17.22° C | 57% | 1014.2 hPa | 0 mm | - | 0 W/m² | - |
| 1778047827 | 17.22° C | 57% | 1014.6 hPa | 0 mm | - | 0 W/m² | - |
| 1778047222 | 17.78° C | 56% | 1014.6 hPa | 0 mm | - | 0 W/m² | - |
| 1778046616 | 18.33° C | 52% | 1014.6 hPa | 0 mm | - | 0 W/m² | - |
| 1778046313 | 18.33° C | 53% | 1014.6 hPa | 0 mm | - | 0 W/m² | - |
| 1778045707 | 18.33° C | 52% | 1014.5 hPa | 0 mm | - | 0 W/m² | - |
| 1778044497 | 18.33° C | 52% | 1014.5 hPa | 0 mm | - | 0 W/m² | - |
| 1778044194 | 18.89° C | 52% | 1014.7 hPa | 0 mm | - | 0 W/m² | - |
| 1778043892 | 18.89° C | 51% | 1014.7 hPa | 0 mm | - | 0 W/m² | - |
| 1778043589 | 18.89° C | 51% | 1014.6 hPa | 0 mm | - | 0 W/m² | - |
| 1778043285 | 18.33° C | 53% | 1015.2 hPa | 0 mm | - | 0 W/m² | - |
| 1778042982 | 17.78° C | 54% | 1015.3 hPa | 0 mm | - | 0 W/m² | - |
| 1778042377 | 17.78° C | 55% | 1015.1 hPa | 0 mm | - | 0 W/m² | - |
| 1778042074 | 17.78° C | 58% | 1015.1 hPa | 0 mm | - | 0 W/m² | - |
| 1778041772 | 17.22° C | 57% | 1015 hPa | 0 mm | - | 0 W/m² | - |
| 1778041169 | 17.22° C | 61% | 1015.1 hPa | 0 mm | - | 0 W/m² | - |
| 1778040866 | 16.67° C | 58% | 1015.2 hPa | 0 mm | - | 0 W/m² | - |
| 1778040563 | 16.11° C | 61% | 1015.4 hPa | 0 mm | - | 0 W/m² | - |
| 1778040261 | 15.56° C | 62% | 1014.9 hPa | 0 mm | - | 0 W/m² | - |
| 1778039655 | 15° C | 66% | 1015 hPa | 0 mm | - | 0 W/m² | - |
| 1778039351 | 15.56° C | 66% | 1015.1 hPa | 0 mm | - | 0 W/m² | - |
* Rain latest hour (hover to see other rain measurements)
** Current wind speed in m/s (hover to see current wind gust speed)